Location: Leiter
(44.7178°N, 106.2687°W)
Time: 02:27:33
(UTC+00:00)

CUTE 1.7 + AOD 2 - Pass Details

Date: 30 June 2022
Orbit: 589 x 608 km, 97.7° (Epoch: 08 August)

Event Time Altitude Azimuth Distance (km) Brightness Sun altitude
Rises 09:59:08 0° 28° (NNE) 2,851 ? -11.8°
Reaches altitude 10° 10:01:53 10° 47° (NE) 1,939 ? -11.5°
Maximum altitude 10:04:51 19° 92° (E) 1,453 ? -11.1°
Drops below altitude 10° 10:07:48 10° 137° (SE) 1,920 ? -10.8°
Sets 10:10:30 0° 156° (SSE) 2,812 ? -10.5°
